Weather History for Fresno, CA

Change the Weather History Date:

Friday, April 25, 2014

  Actual Average Record
Temperature  
Mean Temperature 57 °F 64 °F  
Max Temperature 64 °F 78 °F 101 °F (1898)
Min Temperature 49 °F 51 °F 36 °F (1964)
Degree Days  
Heating Degree Days 8    
Month to date heating degree days 57  
Since 1 July heating degree days 1490  
Cooling Degree Days 0    
Month to date cooling degree days 116  
Year to date cooling degree days 128  
Growing Degree Days 10 (Base 50)    
Moisture  
Dew Point 51 °F    
Average Humidity 74    
Maximum Humidity 87    
Minimum Humidity 60    
Precipitation  
Precipitation 0.55 in 0.02 in 0.93 in (1952)
Month to date precipitation 0.67 0.82  
Year to date precipitation 3.97 7.07  
Since 1 July precipitation 4.70 10.73  
Snow  
Snow 0.00 in - - ()
Month to date snowfall 0.0  
Since 1 July snowfall 0.0  
Snow Depth 0.00 in    
Sea Level Pressure  
Sea Level Pressure 29.85 in    
Wind  
Wind Speed 9 mph (West)    
Max Wind Speed 24 mph    
Max Gust Speed 32 mph    
Visibility 9 miles    
Events Rain , Thunderstorm    
T = Trace of Precipitation, MM = Missing Value Source: NWS Daily Summary

Daily Weather History Graph

Daily Weather History Graph

Search for Another Location

Airport:

Trip Planner

Search our weather history database for the weather conditions in past years. The results will help you decide how hot, cold, wet, or windy it might be!

Date:

Astronomy

Apr. 25, 2014 Rise Set
Actual Time 6:11 AM PDT 7:42 PM PDT
Civil Twilight 5:44 AM PDT 8:09 PM PDT
Nautical Twilight 5:11 AM PDT 8:42 PM PDT
Astronomical Twilight 4:37 AM PDT 9:17 PM PDT
Moon 3:56 AM PDT (4/25) 4:15 PM PDT (4/25)
Length of Visible Light 14h 25m
Length of Day
13h 30m
Waning Crescent, 14% of the Moon is Illuminated
Apr 25
Waning Crescent
Apr 28
New
May 6
First Quarter
May 14
Full
May 21
Last Quarter

Hourly Weather History & Observations

Time (PDT) Temp. Dew Point Humidity Pressure Visibility Wind Dir Wind Speed Gust Speed Precip Events Conditions
12:53 AM 64.0 °F 50.0 °F 60% 29.91 in 10.0 mi NW 13.8 mph 25.3 mph N/A   Overcast
1:53 AM 63.0 °F 50.0 °F 63% 29.91 in 10.0 mi NW 13.8 mph - N/A   Overcast
2:53 AM 61.0 °F 50.0 °F 67% 29.88 in 10.0 mi NW 13.8 mph - N/A   Overcast
3:53 AM 61.0 °F 50.0 °F 67% 29.88 in 10.0 mi NW 6.9 mph - N/A   Overcast
4:53 AM 61.0 °F 50.0 °F 67% 29.88 in 10.0 mi NW 12.7 mph - N/A   Overcast
5:53 AM 60.1 °F 51.1 °F 72% 29.88 in 10.0 mi WNW 10.4 mph 19.6 mph 0.00 in Rain Light Rain
6:53 AM 59.0 °F 51.1 °F 75% 29.88 in 10.0 mi NW 15.0 mph 24.2 mph 0.00 in Rain Light Rain
7:53 AM 57.9 °F 52.0 °F 81% 29.88 in 10.0 mi NNW 17.3 mph - 0.00 in Rain Light Rain
8:53 AM 57.0 °F 51.1 °F 81% 29.89 in 10.0 mi NNW 8.1 mph - 0.00 in Rain Light Rain
9:53 AM 57.0 °F 53.1 °F 87% 29.90 in 7.0 mi WNW 6.9 mph - 0.04 in Rain Light Rain
10:24 AM 57.0 °F 53.1 °F 87% 29.91 in 5.0 mi West 6.9 mph - 0.01 in Rain Light Rain
10:53 AM 57.0 °F 54.0 °F 89% 29.91 in 4.0 mi Variable 3.5 mph - 0.03 in Rain Light Rain
11:53 AM 59.0 °F 55.0 °F 87% 29.89 in 8.0 mi Calm Calm - 0.06 in Rain Light Rain
12:53 PM 61.0 °F 54.0 °F 78% 29.87 in 10.0 mi SE 5.8 mph - 0.00 in   Overcast
1:01 PM 61.0 °F 54.0 °F 78% 29.87 in 10.0 mi SE 6.9 mph - N/A   Overcast
1:53 PM 63.0 °F 53.1 °F 70% 29.84 in 10.0 mi SSE 5.8 mph - N/A   Overcast
2:35 PM 63.0 °F 50.0 °F 63% 29.83 in 10.0 mi SSE 4.6 mph - N/A   Overcast
2:53 PM 64.0 °F 53.1 °F 67% 29.81 in 10.0 mi ESE 10.4 mph - N/A   Overcast
3:23 PM 63.0 °F 53.1 °F 70% 29.80 in 10.0 mi ESE 11.5 mph - N/A   Overcast
3:53 PM 63.0 °F 53.1 °F 70% 29.79 in 10.0 mi SE 10.4 mph - N/A   Overcast
4:53 PM 60.1 °F 53.1 °F 78% 29.78 in 8.0 mi SSW 17.3 mph - 0.00 in Rain , Thunderstorm Thunderstorms and Rain
5:20 PM 54.0 °F 50.0 °F 86% 29.80 in 3.0 mi West 17.3 mph 25.3 mph 0.07 in Rain Rain
5:53 PM 54.0 °F 50.0 °F 86% 29.78 in 4.0 mi Calm Calm - 0.11 in Rain Light Rain
6:53 PM 55.9 °F 48.9 °F 77% 29.78 in 10.0 mi ESE 3.5 mph - 0.04 in Rain Light Rain
7:53 PM 52.0 °F 46.0 °F 80% 29.80 in 10.0 mi WNW 21.9 mph 27.6 mph 0.02 in Rain Light Rain
8:53 PM 50.0 °F 46.0 °F 86% 29.83 in 8.0 mi NNW 12.7 mph - 0.10 in Rain Light Rain
9:53 PM 50.0 °F 46.0 °F 86% 29.83 in 8.0 mi ENE 5.8 mph - 0.05 in Rain Light Rain
10:53 PM 50.0 °F 46.0 °F 86% 29.84 in 10.0 mi SW 5.8 mph - 0.00 in Rain Light Rain
11:53 PM 48.9 °F 45.0 °F 86% 29.85 in 9.0 mi South 6.9 mph - 0.05 in Rain Light Rain